Back to catalog

STARLINK-37163

AliveCommunicationsVLEO
NORAD 68264·PAYLOAD·🇺🇸 United States

Launched Mar 19, 2026 from Vandenberg Space Force Base

Loading…

Next Passes (next 24 hours)

TLE

FreshSource: CelesTrak SupGP

Epoch: Sep 14, 2026, 15:18 UTC

1 68264C 26055C   26257.63798611  .00066657  00000+0  19694-2 0  2574
2 68264  53.1578 157.1889 0001109 102.7237 207.8328 15.34356805    10

Track STARLINK-37163 in real time with AllMySat

Download on the App Store